Regional Weather Roundup
Issued by NWS State College, PA

Home | Current Version | Previous Version | Text Only | Print | Product List | Glossary On
Versions: 1 2 3 4 5 6 7 8 9 10 11 12 13 14 15 16 17 18 19 20 21 22 23 24 25 26 27 28 29 30 31 32 33 34 35 36 37 38 39 40 41 42 43 44 45 46 47 48 49 50
000
ASUS41 KCTP 201410
RWRCTP

REGIONAL WEATHER ROUNDUP
NATIONAL WEATHER SERVICE STATE COLLEGE PA
1000 AM EDT SUN AUG 20 2017

Note: "fair" indicates few or no clouds below 12,000 feet with no
significant weather and/or obstructions to visibility.

* = STATION THAT DOES NOT REPORT PRECIPITATION /E.G. RAIN...SNOW...ETC/
    THUNDER OR FOG.

PAZ002>004-007>009-013>016-020>023-029>032-201500-
WESTERN PENNSYLVANIA

CITY           SKY/WX    TMP DP  RH WIND       PRES   REMARKS
ERIE           SUNNY     75  60  59 SW9       30.11R
MEADVILLE      SUNNY     69  63  81 S5        30.15R
FRANKLIN*      SUNNY     70  61  73 SW6       30.16R
NEW CASTLE     FAIR      65  63  93 S5        30.15S
BEAVER COUNTY  NOT AVBL
BUTLER*        MOSUNNY   64  63  94 SE3       30.17R
PITTSBURGH INT MOSUNNY   64  64 100 SE3       30.15R FOG
PITTSBURGH     FOG       65  63  93 SE3       30.15R VSB 1
INDIANA*       SUNNY     64  64 100 CALM      30.19R
LATROBE        SUNNY     64  64 100 CALM      30.17R
WASHINGTON CO* SUNNY     70  64  83 E6        30.15R
$$

PAZ004>006-010>012-017>019-024>028-033>037-041-042-045-046-049>053-201500-
CENTRAL PENNSYLVANIA

CITY           SKY/WX    TMP DP  RH WIND       PRES   REMARKS
BRADFORD       SUNNY     67  60  78 SW6       30.16R
DUBOIS         MOSUNNY   63  61  93 CALM      30.16R
CLEARFIELD     FOG       61  61 100 SW3       30.16S VSB<1/4
JOHNSTOWN      SUNNY     67  62  84 CALM      30.19R
ALTOONA        SUNNY     68  61  78 VRB3      30.17S
STATE COLLEGE  SUNNY     68  61  77 CALM      30.14S
WILLIAMSPORT   MOSUNNY   70  61  73 W7        30.10S
SELINSGROVE    SUNNY     72  63  73 W5        30.12R
FT INDIANTOWN  SUNNY     73  60  65 W3        30.12R
CAPITAL CITY   SUNNY     74  58  57 W8        30.12R
HARRISBURG     SUNNY     74  61  63 NW8       30.11R
YORK           SUNNY     73  63  70 W5        30.13R
$$

PAZ038>040-043-044-047-048-054-055-060>062-067>071-201500-
EASTERN PENNSYLVANIA

CITY           SKY/WX    TMP DP  RH WIND       PRES   REMARKS
SCRANTON       PTSUNNY   69  60  73 W6        30.11R
MOUNT POCONO     N/A     65  57  75 N12G20    30.11S
ALLENTOWN      SUNNY     72  60  66 NW9       30.09R
QUAKERTOWN*    SUNNY     72  61  68 N7        30.11R
READING        SUNNY     72  64  76 W6        30.10R
LANCASTER      SUNNY     74  62  66 N10       30.12R
COATESVILLE    SUNNY     72  61  68 N8        30.13R
POTTSTOWN      SUNNY     71  62  73 VRB3      30.11R
BLUE BELL      SUNNY     72  61  68 N5        30.11R
DOYLESTOWN     SUNNY     73  61  65 NW9       30.09R
WILLOW GROVE   NOT AVBL
NORTH PHILA    SUNNY     76  61  59 N10       30.10R
PHILADELPHIA   MOSUNNY   75  59  57 NW8       30.09S
$$



USA.gov is the U.S. government's official web portal to all federal, state and local government web resources and services.